Hourly Data Report for September 24, 2020

SHEARWATER RCS
NOVA SCOTIA
Current Station Operator: ECCC - MSC

44°37'47.000" N
63°30'48.000" W
24.00 m
8205092
71264
AAW

Download Data

Hourly Data (September 2020)
Hourly Data Report for September 24, 2020
TIME Temp Definition
°C
Dew Point Definition
°C
Rel Hum Definition
%
Wind Dir Definition
10's deg

Wind Spd Definition
km/h
Visibility Definition
km
Stn Press Definition
kPa
Hmdx Definition


Wind Chill Definition


Weather Definition


00:00 14.2 10.1 76 26 9   99.93     LegendNANA
01:00 14.6 10.1 74 27 9   99.98     LegendNANA
02:00 14.2 10.2 76 32 9   100.00     LegendNANA
03:00 13.6 10.3 80 24 7   100.07     LegendNANA
04:00 13.2 10.3 82 26 5   100.12     LegendNANA
05:00 13.3 10.4 83 27 7   100.17     LegendNANA
06:00 13.7 10.5 81 30 9   100.23     LegendNANA
07:00 14.1 10.9 81 27 5   100.33     LegendNANA
08:00 15.6 11.6 77 24 5   100.39     LegendNANA
09:00 17.5 12.4 72 27 8   100.47     LegendNANA
10:00 18.8 12.5 67 25 7   100.51     LegendNANA
11:00 20.8 12.9 61 26 9   100.51     LegendNANA
12:00 21.0 12.3 58 25 13   100.54     LegendNANA
13:00 20.8 13.4 62 24 12   100.52     LegendNANA
14:00 21.4 12.5 57 24 14   100.50     LegendNANA
15:00 21.5 10.9 51 25 13   100.52     LegendNANA
16:00 21.3 9.9 48 25 14   100.54     LegendNANA
17:00 20.0 10.5 54 25 9   100.63     LegendNANA
18:00 18.8 9.2 54 28 9   100.73     LegendNANA
19:00 17.1 9.5 61 31 6   100.83     LegendNANA
20:00 14.4 10.1 76 20 1   100.95     LegendNANA
21:00 14.2 10.5 79 28 2   101.00     LegendNANA
22:00 14.3 10.8 79 26 3   101.02     LegendNANA
23:00 13.8 10.5 81 1 3   101.00     LegendNANA

Notes on Data Quality.

Legend

  • E = Estimated
  • M = Missing
  • NA = Not Available*
  • [empty] = Indicates an unobserved value
Date modified: